PROXIMA II (43696 NORAD) Tracking and Keplerian Element Data

This shows tracking and keplerian element data for the satellite.

Feedback or suggestion? Click here.




ElementValue
Catalog43696
NamePROXIMA II
Epoch Orbit3703
Epoch Day193.77691707
Epoch Year2019
RAAN302.0347
Inclination85.0335
Eccentricity0.0021877
Argument of Perigee95.4923
Mean Anonmoly264.8815
Mean Motion15.21416967
Decay Rate8.05E-06
L11 43696U 18088G 19193.77691707 .00000805 00000-0 33835-4 0 9999
L22 43696 85.0335 302.0347 0021877 95.4923 264.8815 15.21416967 37039

Live tracking and technical data element details for PROXIMA II (NORAD 43696). PROXIMA II can be tracked NOW for your location showing map with azimuth and elevation plus other details from your city location.

Track the satellite on the map from your city or location and see movement details for azimuth, elevation, latitude, longitude, range, height, and movement on the map or in text.







IsCatalogInMostPopularTable: catalog: 43696, numindb: 144
Update: records affected: 1



GetName: 43696 PROXIMA II

Hit Count: updated at: Wed, 17 Jul 2019 08:38:22 GMT